Weather History for Sparta, TN

Change the Weather History Date:

Wednesday, October 2, 2013

  Actual Average (KCSV) Record (KCSV)
Temperature  
Mean Temperature 70 °F 61 °F  
Max Temperature 80 °F 72 °F 86 °F (1986)
Min Temperature 59 °F 51 °F 31 °F (1974)
Degree Days  
Heating Degree Days 0    
Month to date heating degree days  
Since 1 July heating degree days  
Cooling Degree Days 4    
Month to date cooling degree days  
Year to date cooling degree days  
Growing Degree Days 20 (Base 50)    
Moisture  
Dew Point 64 °F    
Average Humidity 85    
Maximum Humidity 100    
Minimum Humidity 58    
Precipitation  
Precipitation 0.00 in 0.11 in 0.73 in (1961)
Month to date precipitation 0.22  
Year to date precipitation 42.22  
Sea Level Pressure  
Sea Level Pressure 30.13 in    
Wind  
Wind Speed 1 mph (WNW)    
Max Wind Speed 6 mph    
Max Gust Speed -    
Visibility 10 miles    
Events      
T = Trace of Precipitation, MM = Missing Value Source: NWS Daily Summary

Daily Weather History Graph

Daily Weather History Graph

Search for Another Location

Airport:

Trip Planner

Search our weather history database for the weather conditions in past years. The results will help you decide how hot, cold, wet, or windy it might be!

Date:

Astronomy

Oct. 02, 2013 Rise Set
Actual Time 6:38 AM CDT 6:23 PM CDT
Civil Twilight 6:12 AM CDT 6:49 PM CDT
Nautical Twilight 5:42 AM CDT 7:19 PM CDT
Astronomical Twilight 5:13 AM CDT 7:49 PM CDT
Moon 4:14 AM CDT (10/2) 4:56 PM CDT (10/2)
Length of Visible Light 12h 36m
Length of Day
11h 45m
Waning Crescent, 6% of the Moon is Illuminated
Oct 2
Waning Crescent
Oct 4
New
Oct 11
First Quarter
Oct 18
Full
Oct 26
Last Quarter

Hourly Weather History & Observations

Time (CDT) Temp. Heat Index Dew Point Humidity Pressure Visibility Wind Dir Wind Speed Gust Speed Precip Events Conditions
12:35 AM 59.0 °F - 59.0 °F 100% 30.12 in 9.0 mi Calm Calm - N/A   Mostly Cloudy
12:55 AM 60.8 °F - 60.8 °F 100% 30.12 in 10.0 mi Calm Calm - N/A   Overcast
1:15 AM 62.6 °F - 60.8 °F 94% 30.13 in 10.0 mi Calm Calm - N/A   Overcast
1:35 AM 62.6 °F - 62.6 °F 100% 30.13 in 10.0 mi Calm Calm - N/A   Mostly Cloudy
1:55 AM 62.6 °F - 62.6 °F 100% 30.12 in 10.0 mi Calm Calm - N/A   Overcast
2:15 AM 64.4 °F - 62.6 °F 94% 30.12 in 10.0 mi Calm Calm - N/A   Overcast
2:35 AM 64.4 °F - 62.6 °F 94% 30.11 in 10.0 mi Calm Calm - N/A   Overcast
2:55 AM 62.6 °F - 62.6 °F 100% 30.11 in 10.0 mi Calm Calm - N/A   Overcast
3:15 AM 62.6 °F - 60.8 °F 94% 30.11 in 10.0 mi Calm Calm - N/A   Mostly Cloudy
3:35 AM 62.6 °F - 60.8 °F 94% 30.12 in 9.0 mi Calm Calm - N/A   Mostly Cloudy
3:55 AM 62.6 °F - 62.6 °F 100% 30.12 in 10.0 mi Calm Calm - N/A   Overcast
4:15 AM 64.4 °F - 62.6 °F 94% 30.12 in 10.0 mi Calm Calm - N/A   Overcast
4:35 AM 62.6 °F - 62.6 °F 100% 30.12 in 10.0 mi Calm Calm - N/A   Mostly Cloudy
4:55 AM 62.6 °F - 62.6 °F 100% 30.12 in 10.0 mi Calm Calm - N/A   Overcast
5:15 AM 62.6 °F - 62.6 °F 100% 30.13 in 10.0 mi Calm Calm - N/A   Overcast
5:35 AM 62.6 °F - 62.6 °F 100% 30.14 in 10.0 mi Calm Calm - N/A   Mostly Cloudy
5:55 AM 62.6 °F - 62.6 °F 100% 30.14 in 10.0 mi Calm Calm - N/A   Mostly Cloudy
6:15 AM 62.6 °F - 62.6 °F 100% 30.15 in 10.0 mi Calm Calm - N/A   Mostly Cloudy
6:35 AM 62.6 °F - 62.6 °F 100% 30.15 in 10.0 mi Calm Calm - N/A   Mostly Cloudy
6:55 AM 62.6 °F - 62.6 °F 100% 30.16 in 10.0 mi Calm Calm - N/A   Mostly Cloudy
7:15 AM 64.4 °F - 62.6 °F 94% 30.16 in 10.0 mi Calm Calm - N/A   Mostly Cloudy
7:35 AM 64.4 °F - 62.6 °F 94% 30.17 in 10.0 mi Calm Calm - N/A   Mostly Cloudy
7:55 AM 66.2 °F - 62.6 °F 88% 30.17 in 10.0 mi Calm Calm - N/A   Mostly Cloudy
8:15 AM 66.2 °F - 64.4 °F 94% 30.17 in 10.0 mi Calm Calm - N/A   Mostly Cloudy
8:35 AM 69.8 °F - 64.4 °F 83% 30.18 in 10.0 mi Calm Calm - N/A   Mostly Cloudy
8:55 AM 69.8 °F - 64.4 °F 83% 30.18 in 10.0 mi Calm Calm - N/A   Mostly Cloudy
9:15 AM 71.6 °F - 64.4 °F 78% 30.18 in 10.0 mi Calm Calm - N/A   Mostly Cloudy
9:35 AM 73.4 °F - 64.4 °F 73% 30.18 in 10.0 mi SW 3.5 mph - N/A   Mostly Cloudy
9:55 AM 73.4 °F - 64.4 °F 73% 30.18 in 10.0 mi SW 4.6 mph - N/A   Mostly Cloudy
10:15 AM 73.4 °F - 64.4 °F 73% 30.17 in 10.0 mi WSW 5.8 mph - N/A   Overcast
10:35 AM 75.2 °F - 64.4 °F 69% 30.17 in 10.0 mi West 4.6 mph - N/A   Overcast
10:55 AM 75.2 °F - 64.4 °F 69% 30.17 in 10.0 mi WSW 4.6 mph - N/A   Overcast
11:15 AM 75.2 °F - 64.4 °F 69% 30.17 in 10.0 mi Variable 3.5 mph - N/A   Mostly Cloudy
11:35 AM 77.0 °F - 64.4 °F 65% 30.16 in 10.0 mi West 4.6 mph - N/A   Mostly Cloudy
11:55 AM 77.0 °F - 64.4 °F 65% 30.16 in 10.0 mi NW 4.6 mph - N/A   Mostly Cloudy
12:15 PM 77.0 °F - 64.4 °F 65% 30.15 in 10.0 mi WNW 3.5 mph - N/A   Overcast
12:35 PM 78.8 °F - 64.4 °F 61% 30.15 in 10.0 mi SW 4.6 mph - N/A   Mostly Cloudy
12:55 PM 78.8 °F - 64.4 °F 61% 30.14 in 10.0 mi Calm Calm - N/A   Unknown
1:15 PM 78.8 °F - 64.4 °F 61% 30.13 in 10.0 mi North 5.8 mph - N/A   Overcast
1:35 PM 78.8 °F - 64.4 °F 61% 30.13 in 10.0 mi WNW 3.5 mph - N/A   Mostly Cloudy
1:55 PM 78.8 °F - 66.2 °F 65% 30.12 in 10.0 mi North 3.5 mph - N/A   Mostly Cloudy
2:15 PM 80.6 °F 82.7 °F 66.2 °F 61% 30.11 in 10.0 mi Calm Calm - N/A   Scattered Clouds
2:35 PM 80.6 °F 82.7 °F 66.2 °F 61% 30.11 in 10.0 mi Variable 4.6 mph - N/A   Scattered Clouds
2:55 PM 80.6 °F 82.3 °F 64.4 °F 58% 30.11 in 10.0 mi WNW 4.6 mph - N/A   Mostly Cloudy
3:15 PM 80.6 °F 82.7 °F 66.2 °F 61% 30.10 in 6.0 mi NNW 3.5 mph - N/A   Partly Cloudy
3:35 PM 78.8 °F - 66.2 °F 65% 30.10 in 10.0 mi NW 4.6 mph - N/A   Partly Cloudy
3:55 PM 78.8 °F - 66.2 °F 65% 30.10 in 10.0 mi NW 5.8 mph - N/A   Partly Cloudy
4:15 PM 77.0 °F - 66.2 °F 69% 30.10 in 10.0 mi NNW 3.5 mph - N/A   Scattered Clouds
4:35 PM 77.0 °F - 66.2 °F 69% 30.10 in 10.0 mi Calm Calm - N/A   Partly Cloudy
4:55 PM 75.2 °F - 66.2 °F 73% 30.10 in 10.0 mi Calm Calm - N/A   Partly Cloudy
5:15 PM 75.2 °F - 66.2 °F 73% 30.09 in 10.0 mi Calm Calm - N/A   Clear
5:35 PM 75.2 °F - 68.0 °F 78% 30.09 in 10.0 mi Calm Calm - N/A   Clear
5:55 PM 73.4 °F - 68.0 °F 83% 30.09 in 10.0 mi Calm Calm - N/A   Clear
6:15 PM 71.6 °F - 68.0 °F 88% 30.10 in 10.0 mi Calm Calm - N/A   Scattered Clouds
6:35 PM 69.8 °F - 66.2 °F 88% 30.11 in 10.0 mi Calm Calm - N/A   Scattered Clouds
6:55 PM 68.0 °F - 64.4 °F 88% 30.10 in 10.0 mi Calm Calm - N/A   Unknown
7:15 PM 66.2 °F - 64.4 °F 94% 30.10 in 10.0 mi Calm Calm - N/A   Clear
7:35 PM 68.0 °F - 64.4 °F 88% 30.11 in 10.0 mi Calm Calm - N/A   Clear
7:55 PM 66.2 °F - 64.4 °F 94% 30.12 in 10.0 mi Calm Calm - N/A   Partly Cloudy
8:15 PM 66.2 °F - 64.4 °F 94% 30.12 in 10.0 mi Calm Calm - N/A   Mostly Cloudy
8:35 PM 66.2 °F - 66.2 °F 100% 30.12 in 10.0 mi Calm Calm - N/A   Overcast
8:55 PM 66.2 °F - 64.4 °F 94% 30.12 in 10.0 mi Calm Calm - N/A   Mostly Cloudy
9:15 PM 66.2 °F - 66.2 °F 100% 30.13 in 10.0 mi Calm Calm - N/A   Mostly Cloudy
9:35 PM 68.0 °F - 66.2 °F 94% 30.12 in 10.0 mi Calm Calm - N/A   Mostly Cloudy
9:55 PM 68.0 °F - 66.2 °F 94% 30.13 in 10.0 mi Calm Calm - N/A   Scattered Clouds
10:15 PM 68.0 °F - 66.2 °F 94% 30.13 in 10.0 mi Calm Calm - N/A   Scattered Clouds
10:35 PM 66.2 °F - 66.2 °F 100% 30.12 in 10.0 mi Calm Calm - N/A   Partly Cloudy
10:55 PM 66.2 °F - 64.4 °F 94% 30.12 in 6.0 mi Calm Calm - N/A   Clear
11:15 PM 64.4 °F - 64.4 °F 100% 30.12 in 6.0 mi Calm Calm - N/A   Clear
11:35 PM 66.2 °F - 64.4 °F 94% 30.12 in 4.0 mi Calm Calm - N/A   Clear
11:55 PM 66.2 °F - 64.4 °F 94% 30.12 in 6.0 mi Calm Calm - N/A   Clear